Hartford, CT

3:17 PM EDT on May 25, 2018 (GMT -0400)
Hartford-brainard

Weather History for KHFD - March, 2014

Change the Weather History Date:

Monday, March 17, 2014

  Actual Average Record
Temperature  
Mean Temperature 26 °F -  
Max Temperature 33 °F 47 °F 76 °F (1990)
Min Temperature 19 °F 27 °F 10 °F (1967)
Degree Days  
Heating Degree Days 40    
Moisture  
Dew Point 0 °F    
Average Humidity 36    
Maximum Humidity 60    
Minimum Humidity 18    
Precipitation  
Precipitation 0.00 in - - ()
Sea Level Pressure  
Sea Level Pressure 30.13 in    
Wind  
Wind Speed 10 mph (NNE)    
Max Wind Speed 17 mph    
Max Gust Speed 24 mph    
Visibility 10 miles    
Events      
Averages and records for this station are not official NWS values.
T = Trace of Precipitation, MM = Missing Value Source: NWS Daily Summary

Daily Weather History Graph

Daily Weather History Graph

Search for Another Location

Airport or City:

Astronomy

Mar. 17, 2014 Rise Set
Actual Time 6:59 AM EDT 6:59 PM EDT
Civil Twilight 6:31 AM EDT 7:27 PM EDT
Nautical Twilight 5:59 AM EDT 7:59 PM EDT
Astronomical Twilight 5:26 AM EDT 8:32 PM EDT
Moon 8:14 PM EDT (3/17) 7:12 AM EDT (3/17)
Length of Visible Light 12h 55m
Length of Day
12h 00m
Full, 99% of the Moon is Illuminated
Mar 17
Full
Mar 23
Last Quarter
Mar 30
New
Apr 7
First Quarter
Apr 15
Full

Hourly Weather History & Observations

Time (EDT) Temp. Windchill Dew Point Humidity Pressure Visibility Wind Dir Wind Speed Gust Speed Precip Events Conditions
12:53 AM 23.0 °F 12.4 °F 1.9 °F 40% 30.18 in 10.0 mi North 10.4 mph - N/A   Clear
1:53 AM 21.9 °F 9.8 °F 3.0 °F 44% 30.19 in 10.0 mi NNE 12.7 mph - N/A   Partly Cloudy
2:53 AM 21.9 °F 9.2 °F 1.9 °F 42% 30.17 in 10.0 mi NNE 13.8 mph - N/A   Scattered Clouds
3:53 AM 21.9 °F 11.7 °F 1.9 °F 42% 30.14 in 10.0 mi North 9.2 mph - N/A   Mostly Cloudy
4:53 AM 21.0 °F 8.1 °F 1.9 °F 44% 30.14 in 10.0 mi NNE 13.8 mph - N/A   Mostly Cloudy
5:53 AM 19.9 °F 6.2 °F -0.9 °F 40% 30.14 in 10.0 mi NNE 15.0 mph - N/A   Scattered Clouds
6:53 AM 19.0 °F 4.0 °F -4.0 °F 36% 30.14 in 10.0 mi North 17.3 mph 24.2 mph N/A   Mostly Cloudy
7:53 AM 19.0 °F 5.0 °F -5.1 °F 34% 30.16 in 10.0 mi North 15.0 mph 23.0 mph N/A   Clear
8:53 AM 19.0 °F 5.6 °F -6.0 °F 33% 30.18 in 10.0 mi NNE 13.8 mph - N/A   Clear
9:53 AM 21.0 °F 9.9 °F -5.1 °F 32% 30.17 in 10.0 mi North 10.4 mph 18.4 mph N/A   Clear
10:53 AM 21.9 °F 9.2 °F -4.0 °F 32% 30.13 in 10.0 mi North 13.8 mph - N/A   Clear
11:53 AM 24.1 °F 14.4 °F -4.0 °F 29% 30.13 in 10.0 mi NNE 9.2 mph - N/A   Clear
12:53 PM 25.0 °F 16.3 °F -2.0 °F 31% 30.12 in 10.0 mi NNW 8.1 mph - N/A   Clear
1:53 PM 27.0 °F 18.0 °F -0.9 °F 30% 30.08 in 10.0 mi NNE 9.2 mph - N/A   Clear
2:53 PM 30.0 °F 21.7 °F -0.9 °F 27% 30.08 in 10.0 mi North 9.2 mph - N/A   Clear
3:53 PM 30.9 °F 23.5 °F -4.0 °F 22% 30.08 in 10.0 mi NNE 8.1 mph - N/A   Clear
4:53 PM 32.0 °F 26.4 °F -7.1 °F 18% 30.06 in 10.0 mi North 5.8 mph - N/A   Clear
5:53 PM 32.0 °F 26.4 °F -6.0 °F 19% 30.07 in 10.0 mi ENE 5.8 mph - N/A   Clear
6:53 PM 30.0 °F 26.5 °F -5.1 °F 22% 30.08 in 10.0 mi NE 3.5 mph - N/A   Clear
7:53 PM 30.0 °F - -4.0 °F 23% 30.09 in 10.0 mi Calm Calm - N/A   Clear
8:53 PM 27.0 °F - 8.1 °F 45% 30.12 in 10.0 mi Calm Calm - N/A   Clear
9:53 PM 24.1 °F - 9.0 °F 53% 30.13 in 10.0 mi Calm Calm - N/A   Clear
10:53 PM 23.0 °F - 10.0 °F 58% 30.15 in 10.0 mi Calm Calm - N/A   Clear
11:53 PM 21.9 °F - 10.0 °F 60% 30.15 in 10.0 mi Calm Calm - N/A   Clear